sat.trackr.live / text

‹ back to catalog

EUTELSAT 3B

NORAD 39773 · 2014-030A

PAYLOAD ACTIVE UNKNOWN

§ Identity

Operator
Country
EUTE
Launch date
2014-05-26
Launch site
SEAL
Launch vehicle
Mass (kg)
RCS (m²)
79.44

Purposes: comms

External: N2YO · Heavens-Above · Gunter

§ Orbital elements

Epoch: 2026-09-10T02:02:40.643232Z

Period
1,436.10 min
Inclination
0.0653°
Eccentricity
0.0004089
Mean motion
1.00271794 rev/d
Perigee alt
35,769.4 km
Apogee alt
35,803.8 km
Semi-major
42,164.7 km
B*
0.0000e+0
RAAN
353.5918°
Arg perigee
176.4517°
Mean anomaly
212.8383°
Rev number
4,491

§ Raw data

EUTELSAT 3B1 39773U 14030A   26253.08519263 -.00000001  00000+0  00000+0 0  99992 39773   0.0653 353.5918 0004089 176.4517 212.8383  1.00271794 44917

JSON: /api/v1/satellites/39773 · /tle

For live sub-satellite position, see the globe view (requires WebGL).

§ Visibility from observer

Set your observer location to see the next 7 days of passes ≥ 10°. The values pass through the URL so the page stays shareable.

No JS? Fill the form by hand. The geolocation button needs JavaScript.